Location: Winnipeg
(49.8830°N, 97.1670°W)
Time: 20:28:55
(UTC-06:00)

Envisat - Pass Details

Date: 07 December 2022
Orbit: 763 x 765 km, 98.2° (Epoch: 28 January)

Event Time Altitude Azimuth Distance (km) Brightness Sun altitude
Rises 05:49:32 0° 7° (N) 3,246 6.2 -21.9°
Reaches altitude 10° 05:52:01 10° 359° (N) 2,315 5.4 -21.5°
Enters shadow 05:54:15 23° 341° (NNW) 1,600 4.4 -21.2°
